CW2313 Weather Reports


Display with metric or nautical units.
time (UTC)temp
F
wind
direction
speed
MPH
gust
MPH
rain 1hr
in
rain 24hr
in
rain mn
in
humidity
%
barometer
mb
20260504183041 61 167 0.0 0.0 0.00 0.00 0.00 49 1014.4
20260504181519 61 89 0.0 0.0 0.00 0.00 0.00 50 1014.3
20260504180017 61 6 0.0 0.0 0.00 0.00 0.00 49 1014.3
20260504174559 61 177 0.0 0.0 0.00 0.00 0.00 52 1014.2
20260504173059 61 33 0.0 0.0 0.00 0.00 0.00 50 1014.3
20260504171541 61 343 0.0 0.0 0.00 0.00 0.00 48 1014.2
20260504081505 49 41 0.0 0.0 0.00 0.00 0.00 60 1014.8
20260504050015 54 66 0.0 0.0 0.00 0.00 0.00 52 1015.3
20260504044518 54 320 0.0 0.0 0.00 0.00 0.00 51 1015.3
20260504043103 55 37 0.0 0.0 0.00 0.00 0.00 51 1015.3
20260504041558 55 22 0.0 0.0 0.00 0.00 0.00 51 1015.3
20260504040039 55 18 0.0 0.0 0.00 0.00 0.00 51 1015.2
20260504034544 55 37 0.0 0.0 0.00 0.00 0.00 53 1015.1
20260504033021 55 41 0.0 0.0 0.00 0.00 0.00 51 1015.0
20260504031521 55 21 0.0 0.0 0.00 0.00 0.00 51 1015.0
20260504030004 56 21 0.0 0.0 0.00 0.00 0.00 49 1015.0
20260504024502 57 77 0.0 0.0 0.00 0.00 0.00 47 1015.1
20260504023043 59 27 0.0 0.0 0.00 0.00 0.00 43 1015.2
20260504021542 59 84 0.0 0.0 0.00 0.00 0.00 41 1015.3
20260504020024 60 298 0.0 1.0 0.00 0.00 0.00 40 1015.4
20260504014533 60 333 0.0 0.0 0.00 0.00 0.00 40 1015.5
20260504013006 61 306 0.0 0.0 0.00 0.00 0.00 40 1015.6
20260504011506 61 335 0.0 4.0 0.00 0.00 0.00 39 1015.7
20260504010054 62 330 0.0 1.0 0.00 0.00 0.00 40 1015.8
20260504004554 63 118 0.0 0.0 0.00 0.00 0.00 41 1016.0
20260504003057 63 25 0.0 1.0 0.00 0.00 0.00 45 1016.1
20260504001558 64 48 0.0 0.0 0.00 0.00 0.00 47 1016.2
20260504000057 64 159 0.0 0.0 0.00 0.00 0.00 46 1016.3
20260503234552 64 54 0.0 0.0 0.00 0.00 0.00 47 1016.3
20260503233052 64 44 0.0 0.0 0.00 0.00 0.00 49 1016.4
20260503231552 64 46 0.0 0.0 0.00 0.00 0.00 49 1016.5
20260503230033 64 141 0.0 0.0 0.00 0.00 0.00 48 1016.6
20260503224533 65 49 0.0 2.0 0.00 0.00 0.00 46 1016.7
20260503223016 65 339 0.0 0.0 0.00 0.00 0.00 46 1016.8
20260503221516 64 53 0.0 0.0 0.00 0.00 0.00 46 1016.9
20260503220057 65 71 0.0 0.0 0.00 0.00 0.00 45 1017.1
20260503214558 66 143 0.0 0.0 0.00 0.00 0.00 42 1017.2
20260503213039 65 221 0.0 0.0 0.00 0.00 0.00 36 1017.2
20260503211549 65 22 0.0 0.0 0.00 0.00 0.00 44 1017.4
20260503210021 66 360 0.0 0.0 0.00 0.00 0.00 42 1017.5
20260503204521 66 270 0.0 0.0 0.00 0.00 0.00 35 1017.5
20260503203002 65 92 0.0 0.0 0.00 0.00 0.00 40 1017.6
20260503201503 65 66 0.0 0.0 0.00 0.00 0.00 42 1017.6
20260503200055 65 75 0.0 0.0 0.00 0.00 0.00 45 1017.7
20260503194545 65 204 0.0 0.0 0.00 0.00 0.00 44 1017.9
20260503193033 65 205 0.0 0.0 0.00 0.00 0.00 43 1017.9
20260503191526 65 329 0.0 0.0 0.00 0.00 0.00 42 1018.1
20260503190008 64 17 0.0 0.0 0.00 0.00 0.00 41 1018.1
20260503184507 65 337 0.0 0.0 0.00 0.00 0.00 42 1018.2